STARLINK-11325, 61538

Orbit data source: Space-Track

STARLINK-11325, 61538 is a payload satellite owned by SpaceX/Seattle (US) in LEO that was launched on Tue, 15 Oct 2024 UTC via an FALCON 9 launch vehicle from the Air Force Western Test Range (AFWTR). Payload-class satellites include a variety of spacecraft equipped with specific instruments for various scientific and technological missions. These include communications satellites like Starlink; space stations such as the ISS; scientific satellites like the Hubble; Earth observation satellites from companies like Planet Labs, Umbra, and HawkEye 360; GPS; miniature CubeSats for education and research; and military/defense satellites.

Loading next visibility...
Identifier
61538, 2024-184G
Orbit
LEO
Country
Flag of USUS
Related business
Manufacturer
SpaceX/Seattle
Mission
Operational Commercial Communications
Bus & Motor
STARLINK V2MD, Unknown motor
Mass
960 kg wet, ~910 kg dry
Launch date (UTC)
2024-10-15 (2 years ago)
Launch vehicle
FALCON 9
Launch site
Air Force Western Test Range (AFWTR)
Object type
Payload
Rocket body
Debris
Shape & HBR
Box + 2 Pan, 18.1 m
Radar Cross Section
36.964 m², Large (>1 m²)

Expand to show TLE details & history
Last TLE update: 18 hours ago

TLE from 18 hours ago
0 STARLINK-11325
1 61538U 24184G   26171.15191877 -.00001335  00000-0 -61677-5 0  9994
2 61538  53.1600  90.9075 0000570  90.9770 269.1313 15.69712650 96512
Epoch: 2026-06-20T03:38Z
TLE epoch observation values (Epoch: 2026-06-20T03:38:45.781Z)
Latitude
-0.00005°
Longitude
127.84606°
Altitude
360.64 km
Speed
7.694 km/s
True Right ascension
06h 03m 37s
True Declination
0° 00' 00"
Sunlit
Object was in daylight at epoch
Visualization orbit readout
Latitude
Unknown
Longitude
Unknown
Altitude
Unknown
Speed
Unknown
Apparent Right ascension
Unknown
Apparent Declination
Unknown
Sunlit
N/A
Visualization observer readout
Local Sidereal Time
08:33:28
Azimuth
Unknown
Elevation
Unknown
Doppler factor
Unknown
Orbital elements
Apogee altitude
360.364 km
Perigee altitude
359.596 km
Semi-major axis
6,738.117 km
Eccentricity
0.00006
Inclination
53.16°
RAAN
90.9075°
Arg. of periapsis
90.977°
True anomaly
269.12477°
Mean anomaly
269.1313°
Eccentric anomaly
269.12803°
Mean motion
3.92406 °/min
Orbital period
91.74 mins
BSTAR
-0.0000061677
Loading maneuver chart data...
Computing Atmospheric mass density...
Loading historical data...
Loading historical data...
Loading historical data...
Loading historical data...
Loading historical data...
Loading historical data...
Loading historical data...

Documentation

Showing up to 5 results
|